Weather History for Tucumcari, NM

Change the Weather History Date:

Wednesday, January 9, 2013

  Actual Average Record
Temperature  
Mean Temperature 41 °F -  
Max Temperature 54 °F 50 °F 78 °F (1948)
Min Temperature 28 °F 20 °F -6 °F (1977)
Degree Days  
Heating Degree Days 24    
Moisture  
Dew Point 25 °F    
Average Humidity 56    
Maximum Humidity 86    
Minimum Humidity 28    
Precipitation  
Precipitation 0.27 in - - ()
Sea Level Pressure  
Sea Level Pressure 30.24 in    
Wind  
Wind Speed 10 mph (NNE)    
Max Wind Speed 18 mph    
Max Gust Speed 22 mph    
Visibility 10 miles    
Events Rain    
Averages and records for this station are not official NWS values.
T = Trace of Precipitation, MM = Missing Value Source: NWS Daily Summary

Daily Weather History Graph

Daily Weather History Graph

Search for Another Location

Airport:

Trip Planner

Search our weather history database for the weather conditions in past years. The results will help you decide how hot, cold, wet, or windy it might be!

Date:

Astronomy

Jan. 09, 2013 Rise Set
Actual Time 7:03 AM MST 5:00 PM MST
Civil Twilight 6:35 AM MST 5:28 PM MST
Nautical Twilight 6:04 AM MST 5:59 PM MST
Astronomical Twilight 5:33 AM MST 6:30 PM MST
Moon 4:44 AM MST (1/9) 3:04 PM MST (1/9)
Length of Visible Light 10h 52m
Length of Day
9h 57m
Waning Crescent, 6% of the Moon is Illuminated
Jan 9
Waning Crescent
Jan 11
New
Jan 18
First Quarter
Jan 26
Full
Feb 3
Last Quarter

Hourly Weather History & Observations

Time (MST) Temp. Windchill Dew Point Humidity Pressure Visibility Wind Dir Wind Speed Gust Speed Precip Events Conditions
12:53 AM 33.1 °F 24.4 °F 24.1 °F 70% 30.23 in 10.0 mi North 11.5 mph - N/A   Clear
1:53 AM 33.1 °F 24.9 °F 23.0 °F 66% 30.22 in 10.0 mi North 10.4 mph - N/A   Clear
2:53 AM 32.0 °F 24.2 °F 23.0 °F 69% 30.24 in 10.0 mi North 9.2 mph - N/A   Clear
3:53 AM 30.9 °F 26.2 °F 23.0 °F 72% 30.26 in 10.0 mi NNW 4.6 mph - N/A   Clear
4:53 AM 32.0 °F 23.0 °F 23.0 °F 69% 30.27 in 10.0 mi North 11.5 mph - N/A   Clear
5:53 AM 32.0 °F 26.4 °F 23.0 °F 69% 30.31 in 10.0 mi NNW 5.8 mph - N/A   Clear
6:53 AM 28.0 °F 21.7 °F 21.0 °F 75% 30.37 in 10.0 mi North 5.8 mph - N/A   Clear
7:53 AM 30.9 °F 27.5 °F 23.0 °F 72% 30.39 in 10.0 mi WNW 3.5 mph - N/A   Clear
8:53 AM 41.0 °F 33.1 °F 24.1 °F 51% 30.37 in 10.0 mi NNW 15.0 mph - N/A   Clear
9:53 AM 46.0 °F 39.6 °F 23.0 °F 40% 30.36 in 10.0 mi NNW 15.0 mph - N/A   Clear
10:53 AM 50.0 °F - 23.0 °F 35% 30.33 in 10.0 mi North 12.7 mph - N/A   Clear
11:53 AM 53.1 °F - 24.1 °F 32% 30.30 in 10.0 mi NNE 10.4 mph - N/A   Clear
12:53 PM 54.0 °F - 21.0 °F 28% 30.24 in 10.0 mi NE 12.7 mph 21.9 mph N/A   Clear
1:53 PM 54.0 °F - 21.9 °F 29% 30.21 in 10.0 mi NE 17.3 mph - N/A   Clear
2:53 PM 52.0 °F - 23.0 °F 32% 30.22 in 10.0 mi NE 13.8 mph - N/A   Clear
3:53 PM 50.0 °F - 21.9 °F 33% 30.21 in 10.0 mi NE 12.7 mph - N/A   Clear
4:53 PM 46.0 °F 41.4 °F 21.9 °F 39% 30.20 in 10.0 mi NE 9.2 mph - N/A   Clear
5:53 PM 46.0 °F 41.0 °F 23.0 °F 40% 30.20 in 10.0 mi NNE 10.4 mph - N/A   Mostly Cloudy
6:53 PM 45.0 °F 38.9 °F 24.1 °F 44% 30.20 in 10.0 mi NE 12.7 mph - N/A   Mostly Cloudy
7:53 PM 43.0 °F 36.8 °F 28.9 °F 58% 30.18 in 10.0 mi NNE 11.5 mph - 0.00 in Rain Light Rain
8:42 PM 42.8 °F 37.0 °F 30.2 °F 61% 30.16 in 10.0 mi NE 10.4 mph - 0.00 in Rain Light Rain
8:53 PM 42.1 °F 34.9 °F 30.0 °F 62% 30.15 in 10.0 mi NE 13.8 mph - 0.00 in Rain Light Rain
9:53 PM 39.0 °F 29.6 °F 32.0 °F 76% 30.11 in 10.0 mi NNE 18.4 mph - 0.02 in Rain Light Rain
10:53 PM 37.9 °F 34.4 °F 34.0 °F 86% 30.12 in 4.0 mi ENE 4.6 mph - 0.13 in Rain Heavy Rain
11:53 PM 37.9 °F 33.5 °F 34.0 °F 86% 30.09 in 10.0 mi North 5.8 mph - 0.12 in Rain Light Rain